Ottumwa, IA

11:33 PM CDT on October 19, 2019 (GMT -0500)
Ottumwa Industrial

Weather History for KOTM - August, 2019

Change the Weather History Date:

Saturday, August 3, 2019

  Actual Average Record
Temperature  
Mean Temperature 75 °F 74 °F  
Max Temperature 86 °F 85 °F 108 °F (1930)
Min Temperature 64 °F 64 °F 49 °F (1927)
Degree Days  
Heating Degree Days 0 0  
Month to date heating degree days 0 0  
Since 1 June heating degree days 4 23  
Since 1 July heating degree days 0 2  
Cooling Degree Days 10 9  
Month to date cooling degree days 21 29  
Year to date cooling degree days 668 608  
Since 1 June cooling degree days 605 544  
Growing Degree Days 25 (Base 50)    
Moisture  
Dew Point 61 °F    
Average Humidity 66    
Maximum Humidity 87    
Minimum Humidity 44    
Precipitation  
Precipitation 0.00 in 0.14 in 2.64 in (1928)
Month to date precipitation 0.00 0.43  
Year to date precipitation 26.52 22.52  
Sea Level Pressure  
Sea Level Pressure 30.06 in    
Wind  
Wind Speed 3 mph (East)    
Max Wind Speed 12 mph    
Max Gust Speed 17 mph    
Visibility 10 miles    
Events      
T = Trace of Precipitation, MM = Missing Value Source: NWS Daily Summary

Daily Weather History Graph

Daily Weather History Graph

Search for Another Location

Airport or City:

Astronomy

Aug. 03, 2019 Rise Set
Actual Time 6:07 AM CDT 8:24 PM CDT
Civil Twilight 5:36 AM CDT 8:54 PM CDT
Nautical Twilight 4:58 AM CDT 9:32 PM CDT
Astronomical Twilight 4:16 AM CDT 10:14 PM CDT
Moon 9:02 AM CDT (8/3) 10:28 PM CDT (8/3)
Length of Visible Light 15h 18m
Length of Day
14h 16m
Waxing Crescent, 10% of the Moon is Illuminated
Aug 3
Waxing Crescent
Aug 7
First Quarter
Aug 15
Full
Aug 23
Last Quarter
Aug 30
New

Hourly Weather History & Observations

Time (CDT) Temp. Heat Index Dew Point Humidity Pressure Visibility Wind Dir Wind Speed Gust Speed Precip Events Conditions
12:53 AM 70.0 °F - 59.0 °F 68% 30.09 in 10.0 mi East 5.8 mph - N/A   Clear
1:53 AM 70.0 °F - 57.0 °F 63% 30.09 in 10.0 mi ENE 5.8 mph - N/A   Clear
2:53 AM 69.1 °F - 57.0 °F 65% 30.08 in 10.0 mi ENE 4.6 mph - N/A   Clear
3:53 AM 69.1 °F - 55.9 °F 63% 30.07 in 10.0 mi ENE 5.8 mph - N/A   Clear
4:53 AM 66.9 °F - 57.9 °F 73% 30.06 in 10.0 mi ESE 3.5 mph - N/A   Clear
5:53 AM 66.0 °F - 57.9 °F 75% 30.07 in 10.0 mi East 5.8 mph - N/A   Clear
6:53 AM 66.9 °F - 57.9 °F 73% 30.08 in 10.0 mi Calm Calm - N/A   Clear
7:53 AM 68.0 °F - 60.1 °F 76% 30.09 in 10.0 mi Calm Calm - N/A   Partly Cloudy
8:53 AM 70.0 °F - 62.1 °F 76% 30.09 in 10.0 mi East 4.6 mph - N/A   Clear
9:53 AM 73.0 °F - 63.0 °F 71% 30.10 in 10.0 mi Calm Calm - N/A   Clear
10:53 AM 78.1 °F - 64.0 °F 62% 30.10 in 10.0 mi East 5.8 mph - N/A   Clear
11:53 AM 81.0 °F 82.2 °F 63.0 °F 54% 30.08 in 10.0 mi East 8.1 mph - N/A   Clear
12:53 PM 82.9 °F 83.7 °F 62.1 °F 49% 30.08 in 10.0 mi ESE 10.4 mph - N/A   Clear
1:53 PM 82.9 °F 84.0 °F 63.0 °F 51% 30.07 in 10.0 mi SE 5.8 mph - N/A   Clear
2:53 PM 82.9 °F 83.7 °F 62.1 °F 49% 30.06 in 10.0 mi East 6.9 mph - N/A   Partly Cloudy
3:53 PM 84.0 °F 84.4 °F 61.0 °F 46% 30.04 in 10.0 mi Calm Calm - N/A   Partly Cloudy
4:53 PM 84.9 °F 85.0 °F 61.0 °F 44% 30.03 in 10.0 mi Calm Calm - N/A   Clear
5:53 PM 84.0 °F 84.0 °F 60.1 °F 44% 30.02 in 10.0 mi Calm Calm - N/A   Clear
6:53 PM 82.9 °F 83.7 °F 62.1 °F 49% 30.01 in 10.0 mi ESE 3.5 mph - N/A   Clear
7:53 PM 80.1 °F 81.9 °F 64.9 °F 60% 30.01 in 10.0 mi East 3.5 mph - N/A   Clear
8:53 PM 72.0 °F - 64.9 °F 78% 30.02 in 10.0 mi Calm Calm - N/A   Clear
9:53 PM 68.0 °F - 64.0 °F 87% 30.04 in 10.0 mi Calm Calm - N/A   Clear
10:53 PM 68.0 °F - 63.0 °F 84% 30.04 in 10.0 mi Calm Calm - N/A   Clear
11:53 PM 66.0 °F - 63.0 °F 90% 30.05 in 10.0 mi Calm Calm - N/A   Clear